TimeEST,TemperatureF,Dew PointF,Humidity,Sea Level PressureIn,VisibilityMPH,Wind Direction,Wind SpeedMPH,Gust SpeedMPH,PrecipitationIn,Events,Conditions,WindDirDegrees,DateUTC
12:51 AM,55.9,46.0,69,29.65,10.0,West,16.1,29.9,N/A,,Mostly Cloudy,270,2011-12-28 05:51:00
1:51 AM,53.1,42.1,66,29.68,10.0,West,15.0,27.6,N/A,,Partly Cloudy,280,2011-12-28 06:51:00
2:51 AM,52.0,39.0,61,29.68,10.0,WNW,15.0,25.3,N/A,,Partly Cloudy,290,2011-12-28 07:51:00
3:51 AM,51.1,37.0,59,29.70,10.0,WNW,17.3,29.9,N/A,,Partly Cloudy,290,2011-12-28 08:51:00
4:51 AM,50.0,37.9,63,29.72,10.0,WNW,15.0,29.9,N/A,,Mostly Cloudy,290,2011-12-28 09:51:00
5:51 AM,48.9,36.0,61,29.76,10.0,WNW,15.0,32.2,N/A,,Clear,290,2011-12-28 10:51:00
6:51 AM,48.0,35.1,61,29.80,10.0,WNW,15.0,32.2,N/A,,Clear,290,2011-12-28 11:51:00
7:51 AM,48.0,36.0,63,29.84,10.0,WNW,19.6,31.1,N/A,,Clear,300,2011-12-28 12:51:00
8:51 AM,48.9,35.1,59,29.87,10.0,WNW,15.0,31.1,N/A,,Clear,300,2011-12-28 13:51:00
9:51 AM,50.0,35.1,57,29.88,10.0,WNW,18.4,28.8,N/A,,Clear,300,2011-12-28 14:51:00
10:51 AM,52.0,34.0,50,29.88,10.0,WNW,15.0,23.0,N/A,,Clear,300,2011-12-28 15:51:00
11:51 AM,53.1,36.0,52,29.86,10.0,West,15.0,25.3,N/A,,Clear,280,2011-12-28 16:51:00
12:00 PM,-9999,-9999,N/A,-9999,-9999.0,North,-9999.0,-,N/A,,Unknown,0,2011-12-28 17:00:00
12:51 PM,53.1,36.0,52,29.86,10.0,West,18.4,27.6,N/A,,Clear,280,2011-12-28 17:51:00
1:51 PM,53.1,34.0,48,29.87,10.0,WNW,15.0,28.8,N/A,,Clear,290,2011-12-28 18:51:00
2:51 PM,52.0,32.0,47,29.90,10.0,West,16.1,25.3,N/A,,Clear,280,2011-12-28 19:51:00
3:51 PM,52.0,33.1,49,29.91,10.0,West,12.7,25.3,N/A,,Clear,280,2011-12-28 20:51:00
4:51 PM,51.1,34.0,52,29.93,10.0,West,11.5,19.6,N/A,,Clear,270,2011-12-28 21:51:00
5:51 PM,51.1,34.0,52,29.95,10.0,WNW,11.5,19.6,N/A,,Clear,290,2011-12-28 22:51:00
6:51 PM,51.1,34.0,52,29.98,10.0,WNW,15.0,23.0,N/A,,Clear,290,2011-12-28 23:51:00
7:51 PM,51.1,35.1,54,30.01,10.0,WNW,10.4,23.0,N/A,,Clear,290,2011-12-29 00:51:00
8:51 PM,51.1,34.0,52,30.01,10.0,WNW,12.7,20.7,N/A,,Clear,290,2011-12-29 01:51:00
9:51 PM,50.0,35.1,57,30.04,10.0,WNW,9.2,20.7,N/A,,Clear,290,2011-12-29 02:51:00
10:51 PM,50.0,34.0,54,30.04,10.0,WNW,10.4,-,N/A,,Clear,290,2011-12-29 03:51:00
11:51 PM,50.0,33.1,52,30.05,10.0,WNW,11.5,18.4,N/A,,Clear,300,2011-12-29 04:51:00